Date String (YYYY-MM-DD hh:mm:ss) UTC,Instrument flags,Ambient pressure (hPa),Sample flow (lpm),Bypass flow (lpm),Sample temperature (°C),Ambient temperature (°C),ASC tube jacket temperature (°C),LED temperature (°C),Box temperature (°C),Sample RH (%),Span deviation,Mass concentration (μg/m³),Mass concentration (μg/m³),Mass concentration (μg/m³)
DateTimeUTC,F1_M11,P_M11,Q1_M11,Q2_M11,T1_M11,T2_M11,T3_M11,T4_M11,T5_M11,U1_M11,ZSPAN_M11,X2_M11,X0_M11,X1_M11
2022-10-13 14:00:00,,0831.4,4.99,0.00,25.5,24.1,00.0,34.3,27.5,16.6,0000.0,0005.47,0014.58,0004.55
2022-10-13 14:01:00,,0831.4,5.01,0.00,25.5,24.1,00.0,34.3,27.5,16.7,0000.0,0005.56,0015.28,0004.57
2022-10-13 14:02:00,,0831.4,5.01,0.00,25.5,24.1,00.0,34.3,27.5,16.9,0000.0,0005.63,0015.49,0004.59
2022-10-13 14:03:00,,0831.4,4.98,0.00,25.5,24.1,00.0,34.3,27.6,16.8,0000.0,0005.67,0014.28,0004.59
2022-10-13 14:04:00,,0831.5,5.01,0.00,25.6,24.1,00.0,34.3,27.6,16.9,0000.0,0005.68,0013.80,0004.58
2022-10-13 14:05:00,,0831.5,5.01,0.00,25.6,24.2,00.0,34.3,27.6,17.2,0000.0,0005.66,0013.71,0004.57
2022-10-13 14:06:00,,0831.5,5.00,0.00,25.6,24.2,00.0,34.3,27.6,17.3,0000.0,0005.67,0013.71,0004.57
2022-10-13 14:07:00,,0831.5,4.99,0.00,25.6,24.2,00.0,34.3,27.6,17.4,0000.0,0005.65,0013.56,0004.57
2022-10-13 14:08:00,,0831.5,5.01,0.00,25.6,24.2,00.0,34.3,27.6,17.2,0000.0,0005.66,0013.68,0004.57
2022-10-13 14:09:00,,0831.5,5.01,0.00,25.6,24.2,00.0,34.3,27.6,17.2,0000.0,0005.64,0013.45,0004.56
2022-10-13 14:10:00,,0831.5,4.98,0.00,25.6,24.2,00.0,34.3,27.6,17.2,0000.0,0005.59,0012.61,0004.54
2022-10-13 14:11:00,,0831.5,5.01,0.00,25.6,24.2,00.0,34.3,27.7,17.1,0000.2,0005.53,0011.70,0004.53
2022-10-13 14:12:00,,0831.5,4.98,0.00,25.6,24.3,00.0,34.4,27.6,17.2,0001.2,0005.53,0011.67,0004.51
2022-10-13 14:13:00,,0831.5,5.00,0.00,25.6,24.3,00.0,34.4,27.6,16.9,0001.1,0005.47,0011.58,0004.49
2022-10-13 14:14:00,,0831.5,5.01,0.00,25.6,24.3,00.0,34.4,27.7,16.9,0001.9,0005.42,0012.47,0004.48
2022-10-13 14:15:00,,0831.5,5.00,0.00,25.6,24.3,00.0,34.4,27.7,17.0,0001.6,0005.39,0012.69,0004.47
2022-10-13 14:16:00,,0831.5,4.99,0.00,25.7,24.3,00.0,34.4,27.7,17.1,0000.0,0005.33,0012.83,0004.45
2022-10-13 14:17:00,,0831.5,5.01,0.00,25.7,24.3,00.0,34.4,27.7,17.3,0000.0,0005.27,0012.72,0004.43
2022-10-13 14:18:00,,0831.5,5.01,0.00,25.7,24.4,00.0,34.4,27.7,17.4,0000.0,0005.27,0012.82,0004.42
2022-10-13 14:19:00,,0831.5,4.99,0.00,25.7,24.4,00.0,34.4,27.7,17.3,0000.0,0005.25,0012.73,0004.41
2022-10-13 14:20:00,,0831.5,4.99,0.00,25.7,24.4,00.0,34.4,27.7,17.2,0000.0,0005.24,0012.96,0004.40
2022-10-13 14:21:00,,0831.5,5.01,0.00,25.7,24.4,00.0,34.4,27.7,17.0,0000.0,0005.26,0013.02,0004.39
2022-10-13 14:22:00,,0831.5,5.01,0.00,25.7,24.4,00.0,34.4,27.7,17.1,0000.0,0005.25,0012.56,0004.38
2022-10-13 14:23:00,,0831.5,4.99,0.00,25.7,24.4,00.0,34.5,27.8,17.2,0000.0,0005.21,0011.98,0004.37
2022-10-13 14:24:00,,0831.5,5.01,0.00,25.7,24.4,00.0,34.5,27.8,17.2,0000.0,0005.20,0011.82,0004.38
2022-10-13 14:25:00,,0831.5,5.00,0.00,25.7,24.4,00.0,34.5,27.8,17.1,0000.0,0005.25,0011.01,0004.39
2022-10-13 14:26:00,,0831.5,4.99,0.00,25.8,24.4,00.0,34.5,27.8,17.1,0000.0,0005.25,0010.66,0004.39
2022-10-13 14:27:00,,0831.5,5.01,0.00,25.8,24.4,00.0,34.5,27.8,16.9,0000.0,0005.25,0010.75,0004.39
2022-10-13 14:28:00,,0831.5,5.00,0.00,25.8,24.5,00.0,34.5,27.8,17.2,0000.0,0005.27,0010.82,0004.39
2022-10-13 14:29:00,,0831.5,4.99,0.00,25.8,24.5,00.0,34.5,27.8,17.1,0000.0,0005.30,0010.93,0004.38
2022-10-13 14:30:00,,0831.5,5.01,0.00,25.8,24.5,00.0,34.5,27.8,16.7,0000.0,0005.32,0011.20,0004.39
2022-10-13 14:31:00,,0831.5,5.00,0.00,25.8,24.5,00.0,34.5,27.8,16.3,0000.0,0005.33,0011.12,0004.38
2022-10-13 14:32:00,,0831.5,4.99,0.00,25.8,24.5,00.0,34.6,27.8,16.8,0000.0,0005.31,0010.78,0004.37
2022-10-13 14:33:00,,0831.5,5.00,0.00,25.8,24.6,00.0,34.6,27.9,16.7,0000.0,0005.31,0010.90,0004.37
2022-10-13 14:34:00,,0831.5,5.01,0.00,25.9,24.6,00.0,34.6,27.9,16.6,0000.0,0005.27,0011.17,0004.38
2022-10-13 14:35:00,,0831.5,5.00,0.00,25.9,24.6,00.0,34.6,27.9,16.6,0000.0,0005.30,0012.19,0004.37
2022-10-13 14:36:00,,0831.5,4.99,0.00,25.9,24.6,00.0,34.6,27.9,17.2,0000.0,0005.29,0012.42,0004.37
2022-10-13 14:37:00,,0831.6,5.01,0.00,25.9,24.6,00.0,34.6,27.9,16.9,0000.0,0005.31,0012.07,0004.36
2022-10-13 14:38:00,,0831.6,5.01,0.00,25.9,24.6,00.0,34.6,27.9,17.3,0000.0,0005.35,0012.68,0004.37
2022-10-13 14:39:00,,0831.6,4.98,0.00,25.9,24.6,00.0,34.6,27.9,17.5,0000.0,0005.34,0012.58,0004.37
2022-10-13 14:40:00,,0831.7,5.00,0.00,25.9,24.7,00.0,34.6,28.0,17.3,0000.0,0005.25,0012.30,0004.36
2022-10-13 14:41:00,,0831.7,5.01,0.00,25.9,24.7,00.0,34.7,28.0,17.4,0000.0,0005.19,0012.44,0004.36
2022-10-13 14:42:00,,0831.7,5.00,0.00,26.0,24.7,00.0,34.7,28.0,17.5,0000.0,0005.21,0013.60,0004.36
2022-10-13 14:43:00,,0831.7,4.99,0.00,26.0,24.7,00.0,34.7,28.0,17.4,0000.0,0005.21,0013.56,0004.37
2022-10-13 14:44:00,,0831.7,4.99,0.00,26.0,24.7,00.0,34.7,28.0,17.2,0000.0,0005.18,0013.60,0004.36
2022-10-13 14:45:00,,0831.7,5.01,0.00,26.0,24.7,00.0,34.7,28.0,17.5,0000.0,0005.19,0013.37,0004.35
2022-10-13 14:46:00,,0831.7,5.01,0.00,26.0,24.7,00.0,34.7,28.0,17.3,0000.0,0005.16,0013.45,0004.34
2022-10-13 14:47:00,,0831.7,4.99,0.00,26.0,24.7,00.0,34.7,28.0,17.2,0000.0,0005.12,0014.26,0004.33
2022-10-13 14:48:00,,0831.7,5.01,0.00,26.0,24.8,00.0,34.7,28.0,18.1,0000.0,0005.10,0014.22,0004.31
2022-10-13 14:49:00,,0831.7,5.01,0.00,26.0,24.8,00.0,34.8,28.0,18.2,0000.0,0005.07,0013.52,0004.30
2022-10-13 14:50:00,,0831.7,5.00,0.00,26.0,24.8,00.0,34.8,28.1,17.9,0000.0,0005.09,0013.47,0004.29
2022-10-13 14:51:00,,0831.7,5.00,0.00,26.0,24.8,00.0,34.8,28.1,18.0,0000.0,0005.10,0013.49,0004.29
2022-10-13 14:52:00,,0831.7,4.98,0.00,26.1,24.8,00.0,34.8,28.1,18.0,0000.0,0005.09,0013.45,0004.28
2022-10-13 14:53:00,,0831.7,5.01,0.00,26.1,24.8,00.0,34.8,28.1,17.8,0000.0,0005.06,0011.76,0004.27
2022-10-13 14:54:00,,0831.7,5.01,0.00,26.1,24.8,00.0,34.8,28.1,17.8,0000.0,0005.02,0011.90,0004.26
2022-10-13 14:55:00,,0831.6,5.00,0.00,26.1,24.8,00.0,34.8,28.1,17.7,0000.0,0005.02,0011.98,0004.26
2022-10-13 14:56:00,,0831.7,4.98,0.00,26.1,24.8,00.0,34.8,28.1,17.5,0000.0,0005.09,0012.55,0004.26
2022-10-13 14:57:00,,0831.8,4.99,0.00,26.1,24.9,00.0,34.8,28.1,17.5,0000.0,0005.08,0012.23,0004.26
2022-10-13 14:58:00,,0831.7,5.01,0.00,26.1,24.9,00.0,34.8,28.1,17.6,0000.0,0005.05,0011.20,0004.25
2022-10-13 14:59:00,,0831.7,5.01,0.00,26.1,24.9,00.0,34.9,28.1,17.6,0000.0,0005.02,0011.36,0004.24
